Regional Weather Roundup
Issued by NWS

Home | Current Version | Previous Version | Graphics & Text | Print | Product List | Glossary On
Versions: 1 2 3 4 5 6 7 8 9 10 11 12 13 14 15 16 17 18 19 20 21 22 23 24 25 26 27 28 29 30 31 32 33 34 35 36 37 38 39 40 41 42 43 44 45 46 47 48 49 50
000
ASUS43 KLSX 231807
RWRMO
STLRWRMO ALL

WEATHER SUMMARY FOR MISSOURI
NATIONAL WEATHER SERVICE SPRINGFIELD MO
100 PM CDT TUE MAY 23 2017

NOTE: "FAIR" INDICATES FEW OR NO CLOUDS BELOW 12,000 FEET WITH NO
       SIGNIFICANT WEATHER AND/OR OBSTRUCTIONS TO VISIBILITY.
       CURRENT SKY AND/OR WEATHER CONDITIONS ARE NOT AVAILABLE FOR
       CHILLICOTHE AND FARMINGTON.

MOZ001>031-035>038-043-044-053-054-231900-
...NORTHERN AND WESTERN MISSOURI...

CITY           SKY/WX    TMP DP  RH WIND       PRES   REMARKS
KANSAS CTY INT PTSUNNY   63  48  58 NW10      29.85F
6HR MIN TEMP:  53; 6HR MAX TEMP:  64; 6HR PCP: TRACE;

KANSAS C DTWN  PTSUNNY   66  46  48 N13G22    29.84F
6HR MIN TEMP:  56; 6HR MAX TEMP:  67; 6HR PCP: TRACE;

LEE`S SUMMIT   CLOUDY    65  48  54 NW10      29.85F
6HR MIN TEMP:  54; 6HR MAX TEMP:  65; 6HR PCP:  0.01;

ST JOSEPH      PTSUNNY   63  48  58 NW13      29.85F
6HR MIN TEMP:  53; 6HR MAX TEMP:  65;

CHILLICOTHE      N/A     64  48  56 NW9       29.82F
6HR MIN TEMP:  54; 6HR MAX TEMP:  66;

KIRKSVILLE     MOSUNNY   63  51  65 N8        29.80F
6HR MIN TEMP:  54; 6HR MAX TEMP:  64; 6HR PCP:  0.01;


$$
MOZ066>068-077>081-088>096-101>105-231900-
...SOUTHWEST MISSOURI...

CITY           SKY/WX    TMP DP  RH WIND       PRES   REMARKS
SPRINGFIELD    CLOUDY    66  56  70 NW16      29.82S
6HR MIN TEMP:  59; 6HR MAX TEMP:  68;

JOPLIN         CLOUDY    62  55  77 NW9       29.87F
6HR MIN TEMP:  60; 6HR MAX TEMP:  67;

BRANSON        CLOUDY    68  55  64 MISG      29.82F

$$
MOZ032>034-039>042-045>050-055>058-069>072-231900-
...CENTRAL MISSOURI...

CITY           SKY/WX    TMP DP  RH WIND       PRES   REMARKS
COLUMBIA       LGT RAIN  62  57  83 NW10      29.79F
6HR MIN TEMP:  57; 6HR MAX TEMP:  64; 6HR PCP: TRACE;

JEFFERSON CITY CLOUDY    66  55  67 NW10      29.78F
6HR MIN TEMP:  59; 6HR MAX TEMP:  66; 6HR PCP:  0.03;

ROLLA          CLOUDY    61  58  90 NW8       29.79R
6HR MIN TEMP:  57; 6HR MAX TEMP:  62; 6HR PCP:  0.09;

SEDALIA        PTSUNNY   64  55  72 NW14      29.83F
6HR MIN TEMP:  56; 6HR MAX TEMP:  64; 6HR PCP: TRACE;

WARRENSBURG    PTSUNNY   63  50  63 NW13      29.84F
OSAGE BEACH    CLOUDY    65  56  72 NW10      29.80F

$$
MOZ051-052-059>065-231900-
...EAST CENTRAL MISSOURI...

CITY           SKY/WX    TMP DP  RH WIND       PRES   REMARKS
ST LOUIS INTL  CLOUDY    67  59  75 N5        29.76F
6HR MIN TEMP:  63; 6HR MAX TEMP:  73; 6HR PCP:  0.02;

SPIRIT OF STL  CLOUDY    65  59  81 N5        29.74F
6HR MIN TEMP:  61; 6HR MAX TEMP:  66; 6HR PCP:  0.01;

ST CHARLES     CLOUDY    65  61  87 N7        29.75F
6HR MIN TEMP:  60; 6HR MAX TEMP:  66; 6HR PCP:  0.04;


$$
MOZ072>076-082>087-097>100-106>115-231900-
...SOUTH CENTRAL AND SOUTHEAST MISSOURI...

CITY           SKY/WX    TMP DP  RH WIND       PRES   REMARKS
CAPE GIRARDEAU CLOUDY    72  54  53 W8        29.73F
6HR MIN TEMP:  59; 6HR MAX TEMP:  73;

FARMINGTON     CLOUDY    67  57  70 NW7       29.76F
6HR MIN TEMP:  57; 6HR MAX TEMP:  69; 6HR PCP: TRACE;

POPLAR BLUFF   CLOUDY    72  55  55 VRB3      29.74F
6HR MIN TEMP:  59; 6HR MAX TEMP:  74;

WEST PLAINS    PTSUNNY   71  58  63 NE6       29.78F
6HR MIN TEMP:  59; 6HR MAX TEMP:  71; 6HR PCP: TRACE;


$$




USA.gov is the U.S. government's official web portal to all federal, state and local government web resources and services.